User: anonymous   Login
Location: *
(50.6089°N, 2.2719°E)
Time: 23:27:08
(UTC+00:00)
Language:

STARLINK-44 - Orbit

View from above orbital plane
View from above orbital plane
View from above satellite
View from above satellite

Ground track
Ground track

The orbit data is extracted from the following two-line orbital elements,

1 44261U 19029AC  19348.91667824  .00398053  00000-0  21657-1 0  9996
2 44261  53.0013 331.9428 0001491 104.4865 308.0626 15.12047392 31029
Epoch (UTC): 14 December 2019 22:00:01
Eccentricity: 0.0001491
inclination: 53.0013°
perigee height: 529 km
apogee height: 531 km
right ascension of ascending node: 331.9428°
argument of perigee: 104.4865°
revolutions per day: 15.12047392
mean anomaly at epoch: 308.0626°
orbit number at epoch: 3102

The dashed part of the orbit path shows where the satellite is in the earth's shadow,  

DLR